Previsão horária em Ploska

Hoje, 26 Fevereiro, Sexta-feira

Tempo Temperatura Precipitação Vento Pressão Humidade
00:00 +1°C° 0 mm 3 m/s 750 mmHg 98%
01:00 +1°C° 0 mm 3 m/s 750 mmHg 98%
02:00 +2°C° 0 mm 3 m/s 749 mmHg 98%
03:00 +2°C° 0 mm 3 m/s 749 mmHg 97%
04:00 +2°C° 0 mm 3 m/s 749 mmHg 95%
05:00 +1°C° 0 mm 3 m/s 748 mmHg 94%
06:00 +2°C° 0 mm 3 m/s 748 mmHg 92%
07:00 +2°C° 0 mm 3 m/s 748 mmHg 91%
08:00 +1°C° 0 mm 4 m/s 747 mmHg 89%
09:00 +3°C° 0 mm 4 m/s 747 mmHg 89%
10:00 +4°C° 0 mm 4 m/s 747 mmHg 89%
11:00 +5°C° 0 mm 5 m/s 747 mmHg 88%
12:00 +6°C° 0 mm 5 m/s 746 mmHg 88%
13:00 +6°C° 0 mm 5 m/s 746 mmHg 88%
14:00 +7°C° 0 mm 5 m/s 746 mmHg 87%
15:00 +6°C° 0 mm 4 m/s 745 mmHg 89%
16:00 +6°C° 0 mm 4 m/s 745 mmHg 91%
17:00 +5°C° 0 mm 4 m/s 744 mmHg 93%
18:00 +4°C° 0 mm 3 m/s 744 mmHg 93%
19:00 +4°C° 0 mm 3 m/s 744 mmHg 94%
20:00 +3°C° 0 mm 3 m/s 744 mmHg 95%
21:00 +3°C° 0 mm 3 m/s 744 mmHg 95%
22:00 +3°C° 0 mm 3 m/s 744 mmHg 96%
23:00 +3°C° 0 mm 3 m/s 743 mmHg 96%

Amanhã, 27 Fevereiro, Sábado

Tempo Temperatura Precipitação Vento Pressão Humidade
00:00 +3°C° 0.5 mm 3 m/s 744 mmHg 96%
01:00 +3°C° 0.5 mm 3 m/s 744 mmHg 97%
02:00 +3°C° 0.5 mm 4 m/s 744 mmHg 97%
03:00 +3°C° 0.1 mm 4 m/s 744 mmHg 96%
04:00 +1°C° 0.1 mm 4 m/s 743 mmHg 94%
05:00 +1°C° 0.1 mm 5 m/s 743 mmHg 92%
06:00 +1°C° 0 mm 5 m/s 743 mmHg 91%
07:00 +1°C° 0 mm 5 m/s 743 mmHg 91%
08:00 0°C° 0 mm 5 m/s 744 mmHg 90%
09:00 +1°C° 0 mm 6 m/s 744 mmHg 87%
10:00 +1°C° 0 mm 6 m/s 744 mmHg 84%
11:00 +1°C° 0 mm 6 m/s 744 mmHg 80%
12:00 +1°C° 0 mm 6 m/s 744 mmHg 81%
13:00 +2°C° 0 mm 6 m/s 744 mmHg 81%
14:00 +2°C° 0 mm 6 m/s 744 mmHg 82%
15:00 +2°C° 0 mm 6 m/s 744 mmHg 85%
16:00 +1°C° 0 mm 6 m/s 744 mmHg 89%
17:00 +1°C° 0 mm 6 m/s 744 mmHg 93%
18:00 +1°C° 0.1 mm 6 m/s 744 mmHg 92%
19:00 -1°C° 0.1 mm 6 m/s 744 mmHg 92%
20:00 -1°C° 0.1 mm 6 m/s 745 mmHg 92%
21:00 -1°C° 0.1 mm 6 m/s 745 mmHg 93%
22:00 -2°C° 0.1 mm 6 m/s 745 mmHg 94%
23:00 -2°C° 0.1 mm 6 m/s 745 mmHg 95%

Depois de amanhã, 28 Fevereiro, Domingo

Tempo Temperatura Precipitação Vento Pressão Humidade
00:00 -1°C° 0.1 mm 5 m/s 745 mmHg 95%
01:00 -1°C° 0.1 mm 5 m/s 746 mmHg 95%
02:00 -1°C° 0.1 mm 5 m/s 746 mmHg 96%
03:00 -1°C° 0 mm 5 m/s 746 mmHg 95%
04:00 -1°C° 0 mm 5 m/s 746 mmHg 95%
05:00 -2°C° 0 mm 5 m/s 746 mmHg 94%
06:00 -2°C° 0.1 mm 5 m/s 747 mmHg 92%
07:00 -2°C° 0.1 mm 5 m/s 747 mmHg 91%
08:00 -2°C° 0.1 mm 5 m/s 748 mmHg 89%
09:00 -2°C° 0 mm 5 m/s 748 mmHg 85%
10:00 -1°C° 0 mm 5 m/s 748 mmHg 82%
11:00 -2°C° 0 mm 6 m/s 748 mmHg 79%
12:00 -1°C° 0 mm 6 m/s 748 mmHg 77%
13:00 -1°C° 0 mm 6 m/s 748 mmHg 76%
14:00 -1°C° 0 mm 6 m/s 748 mmHg 75%
15:00 -1°C° 0 mm 6 m/s 748 mmHg 75%
16:00 -2°C° 0 mm 6 m/s 748 mmHg 75%
17:00 -2°C° 0 mm 6 m/s 748 mmHg 75%
18:00 -1°C° 0 mm 5 m/s 748 mmHg 78%
19:00 -2°C° 0 mm 4 m/s 748 mmHg 80%
20:00 -1°C° 0 mm 3 m/s 748 mmHg 83%
21:00 -1°C° 0.1 mm 3 m/s 748 mmHg 87%
22:00 -1°C° 0.1 mm 3 m/s 748 mmHg 91%
23:00 -1°C° 0.1 mm 3 m/s 748 mmHg 95%

1 Março, Segunda-feira

Tempo Temperatura Precipitação Vento Pressão Humidade
00:00 -1°C° 0.3 mm 3 m/s 748 mmHg 96%
01:00 0°C° 0.3 mm 3 m/s 748 mmHg 97%
02:00 +1°C° 0.3 mm 2 m/s 748 mmHg 98%
03:00 +1°C° 0.2 mm 2 m/s 748 mmHg 98%
04:00 +1°C° 0.2 mm 2 m/s 748 mmHg 98%
05:00 +1°C° 0.2 mm 2 m/s 748 mmHg 98%
06:00 +1°C° 0 mm 2 m/s 749 mmHg 98%
07:00 +1°C° 0 mm 2 m/s 749 mmHg 98%
08:00 +1°C° 0 mm 2 m/s 750 mmHg 97%
09:00 0°C° 0 mm 3 m/s 750 mmHg 95%
10:00 -1°C° 0 mm 4 m/s 751 mmHg 92%
11:00 -1°C° 0 mm 4 m/s 752 mmHg 89%
12:00 0°C° 0 mm 4 m/s 752 mmHg 86%
13:00 0°C° 0 mm 4 m/s 752 mmHg 82%
14:00 +2°C° 0 mm 3 m/s 753 mmHg 78%
15:00 +1°C° 0 mm 3 m/s 753 mmHg 80%
16:00 +2°C° 0 mm 2 m/s 753 mmHg 81%
17:00 +2°C° 0 mm 2 m/s 753 mmHg 83%
18:00 +2°C° 0 mm 2 m/s 753 mmHg 84%
19:00 +2°C° 0 mm 2 m/s 754 mmHg 85%
20:00 +2°C° 0 mm 2 m/s 754 mmHg 86%
21:00 +1°C° 0 mm 2 m/s 755 mmHg 87%
22:00 +1°C° 0 mm 2 m/s 755 mmHg 88%
23:00 +1°C° 0 mm 2 m/s 755 mmHg 89%

2 Março, Terça-feira

Tempo Temperatura Precipitação Vento Pressão Humidade
00:00 -1°C° 0 mm 2 m/s 755 mmHg 90%
01:00 -1°C° 0 mm 3 m/s 755 mmHg 91%
02:00 -1°C° 0 mm 3 m/s 755 mmHg 91%
03:00 -1°C° 0 mm 3 m/s 754 mmHg 91%
04:00 -2°C° 0 mm 4 m/s 754 mmHg 91%
05:00 -2°C° 0 mm 4 m/s 754 mmHg 91%
06:00 -1°C° 0 mm 5 m/s 754 mmHg 90%
07:00 -1°C° 0 mm 5 m/s 754 mmHg 89%
08:00 -1°C° 0 mm 5 m/s 753 mmHg 88%
09:00 +1°C° 0 mm 6 m/s 753 mmHg 84%
10:00 +2°C° 0 mm 6 m/s 753 mmHg 79%
11:00 +4°C° 0 mm 6 m/s 753 mmHg 75%
12:00 +5°C° 0 mm 6 m/s 753 mmHg 72%
13:00 +6°C° 0 mm 7 m/s 753 mmHg 68%
14:00 +8°C° 0 mm 7 m/s 753 mmHg 65%
15:00 +7°C° 0 mm 6 m/s 752 mmHg 67%
16:00 +7°C° 0 mm 6 m/s 752 mmHg 69%
17:00 +5°C° 0 mm 6 m/s 752 mmHg 71%
18:00 +5°C° 0 mm 6 m/s 752 mmHg 75%
19:00 +4°C° 0 mm 6 m/s 752 mmHg 79%
20:00 +3°C° 0 mm 6 m/s 752 mmHg 83%
21:00 +3°C° 0 mm 6 m/s 752 mmHg 84%
22:00 +2°C° 0 mm 5 m/s 752 mmHg 86%
23:00 +2°C° 0 mm 5 m/s 752 mmHg 87%

3 Março, Quarta-feira

Tempo Temperatura Precipitação Vento Pressão Humidade
00:00 +2°C° 0 mm 5 m/s 752 mmHg 88%
01:00 +1°C° 0 mm 5 m/s 752 mmHg 89%
02:00 +1°C° 0 mm 5 m/s 751 mmHg 90%
03:00 +1°C° 0 mm 5 m/s 751 mmHg 90%
04:00 0°C° 0 mm 5 m/s 751 mmHg 90%
05:00 0°C° 0 mm 5 m/s 751 mmHg 90%
06:00 0°C° 0 mm 5 m/s 751 mmHg 89%
07:00 0°C° 0 mm 5 m/s 751 mmHg 88%
08:00 0°C° 0 mm 5 m/s 751 mmHg 87%
09:00 +2°C° 0 mm 5 m/s 751 mmHg 80%
10:00 +5°C° 0 mm 5 m/s 751 mmHg 74%
11:00 +6°C° 0 mm 5 m/s 750 mmHg 67%
12:00 +7°C° 0 mm 5 m/s 750 mmHg 63%
13:00 +8°C° 0 mm 5 m/s 750 mmHg 59%
14:00 +9°C° 0 mm 5 m/s 750 mmHg 55%
15:00 +8°C° 0 mm 5 m/s 749 mmHg 57%
16:00 +8°C° 0 mm 4 m/s 749 mmHg 58%
17:00 +8°C° 0 mm 3 m/s 749 mmHg 59%
18:00 +7°C° 0 mm 3 m/s 749 mmHg 64%
19:00 +5°C° 0 mm 3 m/s 749 mmHg 69%
20:00 +4°C° 0 mm 3 m/s 749 mmHg 74%
21:00 +3°C° 0 mm 3 m/s 749 mmHg 76%
22:00 +3°C° 0 mm 3 m/s 749 mmHg 78%
23:00 +2°C° 0 mm 3 m/s 749 mmHg 80%
Mostrar mais

Necessitamos do seu Consentimento

A Meteoprog e os seus Fornecedores de Serviços podem armazenar e aceder a dados pessoais como cookies, identificadores do dispositivo ou outras tecnologias semelhantes existentes no seu dispositivo e processar estes dados para personalizar conteúdos e anúncios, assim como funcionalidades nas redes sociais e análise de tráfego.

  • Armazenar e/ou aceder a informações no seu dispositivo

    Os cookies, identificadores do dispositivo ou outras informações podem ser armazenados ou acedidos no seu dispositivo, para os fins acima indicados.

  • Anúncios e conteúdos personalizados, medição de anúncios e conteúdos, dados sobre o público-alvo e desenvolvimento de produtos

    Os anúncios e os conteúdos podem ser personalizados com base num perfil. Podem ser adicionados dados adicionais para uma maior personalização dos anúncios e dos conteúdos. A eficácia dos anúncios e dos conteúdos pode ser medida. Podem ser obtidas informações sobre o público que visualizou os anúncios e os conteúdos. Estes dados podem ser usados para desenvolver ou melhorar sistemas, softwares ou a experiência do utilizador.

Ao clicar em "Eu concordo”, permitirá o uso de cookies, identificadores do dispositivo e web beacons mencionados ou outras tecnologias semelhantes. As configurações do navegador do seu dispositivo podem ser alteradas.

Para certos fins, podem ser invocados interesses legítimos ao invés de consentimento. Pode ler mais informação sobre este assunto na nossa Política de Privacidade e Cookies.